Location: Liscomb Game Sanctuary
(45.1633°N, 62.5575°W)
Time: 18:47:37
(UTC-04:00)

Amateur Radio Satellites - All Passes

Search period start: 27 February 2017 18:17
Search period end: 28 February 2017 18:17
Location: Liscomb Game Sanctuary, 45.1633°N, 62.5575°W

Satellite Date Start Highest point End Downlink Frequencies (MHz)
Time Altitude Azimuth
CUBESAT XI-V 27 Feb 18:20:06 18:23:32 21° 296° (WNW) 18:26:56 437.345
SEEDS 27 Feb 18:23:47 18:27:24 28° 67° (ENE) 18:30:59 437.485
KAITUO 1B 27 Feb 18:33:41 18:36:36 21° 266° (W) 18:39:33 145.475/437.950
NO-84 27 Feb 18:34:54 18:37:42 22° 345° (NNW) 18:40:43 435.350 FM
XW-2F 27 Feb 18:43:34 18:45:45 15° 269° (W) 18:47:56 145.980 - 146.000
UWE-3 27 Feb 18:47:24 18:51:00 24° 65° (ENE) 18:54:41 435.000/436.395/437.385
CUTE-I 27 Feb 18:47:39 18:51:50 23° 267° (W) 18:56:04 437.470
XW-2D 27 Feb 18:50:37 18:52:04 12° 271° (W) 18:53:32 145.860 - 145.880
XW-2B 27 Feb 18:56:22 18:57:13 11° 271° (W) 18:58:05 145.730 - 145.750
ZACube-1 27 Feb 19:02:58 19:06:21 21° 64° (ENE) 19:09:46 437.345
CUTE 1.7 + AOD 2 27 Feb 19:06:09 19:10:25 71° 258° (WSW) 19:14:42 437.475
M-CUBED/EXP-1 PRIME 27 Feb 19:06:23 19:09:09 20° 299° (WNW) 19:12:05 437.505
HO-68 27 Feb 19:21:08 19:28:12 59° 258° (WSW) 19:35:17 435.675
XW-2A 27 Feb 19:38:52 19:41:00 16° 268° (W) 19:43:09 145.665 - 145.685
AAUSAT CUBESAT 2 27 Feb 19:40:14 19:44:25 89° 269° (W) 19:48:35 437.432
STRAND 1 27 Feb 19:44:42 19:49:54 83° 105° (ESE) 19:55:02 437.568
AO-73 27 Feb 19:48:41 19:53:03 52° 72° (ENE) 19:57:30 145.935
CUBEBUG 2 27 Feb 19:50:48 19:55:11 54° 261° (W) 19:59:46 437.445
Oscar 11 27 Feb 19:52:22 19:56:34 49° 72° (ENE) 20:00:47 .
SEEDS 27 Feb 19:59:20 20:03:01 28° 265° (W) 20:06:42 437.485
RS-15 27 Feb 20:08:06 20:19:13 38° 335° (NNW) 20:30:31 29.354- 29.394
YUBILEINY 27 Feb 20:12:30 20:20:23 36° 68° (ENE) 20:28:12 435.215
NO-84 27 Feb 20:13:40 20:16:24 19° 7° (N) 20:19:18 435.350 FM
UWE-3 27 Feb 20:22:59 20:27:13 40° 263° (W) 20:31:35 435.000/436.395/437.385
ZACube-1 27 Feb 20:37:59 20:42:18 45° 262° (W) 20:46:43 437.345
DELFI C3 27 Feb 20:49:59 20:53:55 66° 74° (ENE) 20:57:50 145.870
UNISAT 6 27 Feb 20:57:40 20:58:53 11° 87° (E) 21:00:05 437.425
FO-29 27 Feb 21:08:35 21:11:25 12° 80° (E) 21:14:10 435.910
STRAND 1 27 Feb 21:25:27 21:28:23 15° 302° (WNW) 21:31:19 437.568
AO-73 27 Feb 21:26:36 21:29:35 17° 270° (W) 21:32:38 145.935
Oscar 11 27 Feb 21:30:07 21:32:58 17° 269° (W) 21:35:51 .
PRISM 27 Feb 21:32:46 21:36:46 51° 100° (E) 21:40:45 437.425
NO-84 27 Feb 21:51:12 21:54:53 39° 27° (NNE) 21:58:50 435.350 FM
SO-50 27 Feb 21:51:33 21:56:13 73° 123° (ESE) 22:00:50 436.795
YUBILEINY 27 Feb 22:09:08 22:17:34 56° 270° (W) 22:25:57 435.215
ESTCUBE 1 27 Feb 22:15:20 22:19:36 43° 70° (ENE) 22:23:53 437.505/2401.250
LO-87 27 Feb 22:19:05 22:22:38 89° 276° (W) 22:26:12 145.935 - 145.965
SPROUT 27 Feb 22:19:07 22:21:17 14° 61° (ENE) 22:23:29 437.525
RS-15 27 Feb 22:25:45 22:36:21 31° 9° (N) 22:46:49 29.354- 29.394
DELFI C3 27 Feb 22:28:16 22:29:09 11° 271° (W) 22:30:01 145.870
O/OREOS (USA 219) 27 Feb 22:29:18 22:33:47 87° 112° (ESE) 22:38:19 437.305
VELOX 1 27 Feb 22:29:58 22:33:21 22° 64° (ENE) 22:36:44 145.980
TIGRISAT 27 Feb 22:30:56 22:35:41 87° 106° (ESE) 22:40:20 435.000
UNISAT 6 27 Feb 22:31:30 22:36:14 86° 286° (WNW) 22:40:53 437.425
50 SAT 27 Feb 22:38:03 22:39:56 14° 64° (ENE) 22:41:49 437.505
DUCHIFAT 1 27 Feb 22:46:46 22:47:04 10° 88° (E) 22:47:21 145.980
FO-29 27 Feb 22:50:23 22:58:00 67° 101° (E) 23:04:50 435.910
EO-79 27 Feb 22:58:31 23:01:22 17° 92° (E) 23:04:12 145.935-145.965
PCSat 27 Feb 22:59:28 23:03:28 20° 38° (NE) 23:07:26 145.827
AIST 2D 27 Feb 23:08:54 23:12:10 33° 97° (E) 23:15:24 435.315
PRISM 27 Feb 23:09:10 23:11:39 16° 298° (WNW) 23:14:09 437.425
NANOSAT C BR1 27 Feb 23:13:20 23:16:44 22° 94° (E) 23:20:06 145.865
POLYITAN 1 27 Feb 23:16:18 23:19:57 26° 95° (E) 23:23:34 437.675
QB50P2 27 Feb 23:19:17 23:23:05 30° 96° (E) 23:26:52 145.880/145.840
NO-84 27 Feb 23:28:47 23:32:40 45° 224° (SW) 23:36:48 435.350 FM
BUGSAT 1 27 Feb 23:31:42 23:33:04 11° 89° (E) 23:34:26 437.445
SO-50 27 Feb 23:33:38 23:37:10 21° 323° (NW) 23:40:40 436.795
DX 1 27 Feb 23:47:32 23:51:48 62° 72° (ENE) 23:56:05 434.975-435.025
SPROUT 27 Feb 23:52:27 23:56:40 67° 258° (WSW) 00:00:57 437.525
ESTCUBE 1 27 Feb 23:53:14 23:56:35 20° 267° (W) 23:59:58 437.505/2401.250
UKube-1 27 Feb 23:54:08 23:58:18 52° 72° (ENE) 00:02:30 .
VELOX 1 28 Feb 00:05:27 00:09:34 40° 262° (W) 00:13:43 145.980
50 SAT 28 Feb 00:09:24 00:12:44 41° 261° (W) 00:16:04 437.505
TIGRISAT 28 Feb 00:09:35 00:11:38 13° 302° (WNW) 00:13:42 435.000
UNISAT 6 28 Feb 00:10:27 00:12:10 12° 302° (WNW) 00:13:53 437.425
O/OREOS (USA 219) 28 Feb 00:11:33 00:13:52 14° 313° (NW) 00:16:12 437.305
DUCHIFAT 1 28 Feb 00:19:00 00:23:17 80° 286° (WNW) 00:27:32 145.980
EO-79 28 Feb 00:33:15 00:37:23 47° 289° (WNW) 00:41:29 145.935-145.965
FO-29 28 Feb 00:36:03 00:42:22 29° 302° (WNW) 00:48:15 435.910
RS-15 28 Feb 00:40:17 00:52:25 55° 41° (NE) 01:04:08 29.354- 29.394
PCSat 28 Feb 00:42:08 00:47:37 89° 241° (WSW) 00:53:03 145.827
AIST 2D 28 Feb 00:42:46 00:45:09 17° 294° (WNW) 00:47:32 435.315
NANOSAT C BR1 28 Feb 00:48:37 00:52:32 36° 291° (WNW) 00:56:26 145.865
POLYITAN 1 28 Feb 00:51:55 00:55:45 31° 292° (WNW) 00:59:31 437.675
QB50P2 28 Feb 00:55:09 00:58:48 27° 293° (WNW) 01:02:25 145.880/145.840
Gurwin Techsat 1B 28 Feb 01:01:41 01:05:17 18° 90° (E) 01:08:53 435.225
ITUPSAT 1 28 Feb 01:03:14 01:07:01 24° 63° (ENE) 01:10:49 437.325
BUGSAT 1 28 Feb 01:04:39 01:08:55 72° 285° (WNW) 01:13:08 437.445
BEESAT 28 Feb 01:07:43 01:11:39 26° 64° (ENE) 01:15:37 436.000
DX 1 28 Feb 01:26:13 01:28:23 14° 270° (W) 01:30:35 434.975-435.025
UKube-1 28 Feb 01:32:01 01:34:38 16° 268° (W) 01:37:18 .
Oscar 19 28 Feb 01:32:32 01:37:36 58° 101° (E) 01:42:39 437.125/150
ITAMSAT 1 28 Feb 02:13:59 02:16:56 15° 89° (E) 02:19:52 435.822/435.867
PCSat 28 Feb 02:27:39 02:30:12 13° 257° (WSW) 02:32:45 145.827
MOZHAYETS 4 28 Feb 02:39:37 02:44:15 70° 74° (ENE) 02:48:53
ITUPSAT 1 28 Feb 02:39:59 02:44:35 45° 261° (W) 02:49:13 437.325
Gurwin Techsat 1B 28 Feb 02:40:25 02:45:42 65° 288° (WNW) 02:50:57 435.225
BEESAT 28 Feb 02:44:45 02:49:14 39° 262° (W) 02:53:45 436.000
KKS-1 28 Feb 02:50:29 02:54:08 26° 65° (ENE) 02:57:48 437.445
RS-15 28 Feb 02:53:18 03:05:08 57° 247° (WSW) 03:16:29 29.354- 29.394
Oscar 19 28 Feb 03:12:46 03:16:30 21° 299° (WNW) 03:20:14 437.125/150
STARS 28 Feb 03:16:37 03:20:00 22° 64° (ENE) 03:23:24 437.465
AO-85 28 Feb 03:34:20 03:38:44 51° 121° (ESE) 03:42:49 145.980
AO-7 28 Feb 03:36:28 03:44:37 56° 103° (ESE) 03:52:41 .
CUBESAT XI-V 28 Feb 03:46:56 03:51:29 57° 73° (ENE) 03:56:02 437.345
ITAMSAT 1 28 Feb 03:51:44 03:56:59 76° 287° (WNW) 04:02:11 435.822/435.867
MOZHAYETS 4 28 Feb 04:19:37 04:21:53 13° 271° (W) 04:24:11
M-CUBED/EXP-1 PRIME 28 Feb 04:19:46 04:23:00 70° 69° (ENE) 04:26:17 437.505
Gurwin Techsat 1B 28 Feb 04:23:33 04:24:38 11° 307° (NW) 04:25:42 435.225
KKS-1 28 Feb 04:26:31 04:30:33 34° 263° (W) 04:34:37 437.445
BEESAT 3 28 Feb 04:37:10 04:39:17 14° 110° (ESE) 04:41:26 437.485
SO-50 28 Feb 04:41:18 04:44:41 20° 37° (NE) 04:48:03 436.795
STARS 28 Feb 04:52:01 04:56:07 40° 262° (W) 05:00:16 437.465
RS-15 28 Feb 05:10:59 05:14:32 12° 269° (W) 05:18:02 29.354- 29.394
AO-85 28 Feb 05:15:50 05:19:21 23° 318° (NW) 05:22:43 145.980
LilacSat-2 28 Feb 05:19:43 05:21:42 14° 90° (E) 05:23:39 437.200
BEESAT 2 28 Feb 05:21:29 05:24:09 18° 112° (ESE) 05:26:51 435.950
CUTE-I 28 Feb 05:22:19 05:25:48 17° 90° (E) 05:29:16 437.470
STRAND 1 28 Feb 05:25:10 05:28:58 21° 61° (ENE) 05:32:47 437.568
CUBESAT XI-V 28 Feb 05:26:16 05:29:13 16° 270° (W) 05:32:09 437.345
AO-7 28 Feb 05:29:38 05:37:07 39° 303° (WNW) 05:44:34 .
ITAMSAT 1 28 Feb 05:33:31 05:35:33 12° 306° (NW) 05:37:35 435.822/435.867
DOVE 4 28 Feb 05:53:24 05:57:55 41° 98° (E) 06:02:41 437.250
KAITUO 1B 28 Feb 06:02:08 06:05:33 32° 96° (E) 06:08:55 145.475/437.950
XW-2F 28 Feb 06:11:50 06:15:34 50° 100° (E) 06:19:14 145.980 - 146.000
BEESAT 3 28 Feb 06:12:32 06:16:24 60° 308° (NW) 06:20:21 437.485
XW-2D 28 Feb 06:18:20 06:22:09 64° 101° (E) 06:25:55 145.860 - 145.880
SO-50 28 Feb 06:21:07 06:25:38 73° 238° (WSW) 06:30:05 436.795
XW-2B 28 Feb 06:23:27 06:27:18 72° 103° (ESE) 06:31:04 145.730 - 145.750
ISS 28 Feb 06:24:55 06:27:22 19° 136° (SE) 06:29:50 437.550
XW-2C 28 Feb 06:32:14 06:36:05 88° 284° (WNW) 06:39:53 145.795 - 145.815
NUDT-PHONESAT 28 Feb 06:33:04 06:36:51 78° 102° (ESE) 06:40:34 437.300
Tancredo 1 28 Feb 06:42:19 06:45:10 28° 139° (SE) 06:48:01 437.200
HO-68 28 Feb 06:47:06 06:52:49 25° 92° (E) 06:58:30 435.675
CUTE 1.7 + AOD 2 28 Feb 06:49:57 06:52:44 17° 91° (E) 06:55:30 437.475
LilacSat-2 28 Feb 06:52:33 06:56:16 48° 287° (WNW) 06:59:56 437.200
XW-2A 28 Feb 06:57:39 07:00:37 26° 96° (E) 07:03:34 145.665 - 145.685
BEESAT 2 28 Feb 06:57:42 07:01:34 49° 310° (NW) 07:05:30 435.950
O/OREOS (USA 219) 28 Feb 06:58:18 07:02:18 29° 56° (NE) 07:06:18 437.305
CUTE-I 28 Feb 07:01:00 07:06:22 69° 288° (WNW) 07:11:41 437.470
STRAND 1 28 Feb 07:02:40 07:07:43 57° 259° (W) 07:12:50 437.568
AAUSAT CUBESAT 2 28 Feb 07:22:09 07:23:50 12° 89° (E) 07:25:32 437.432
AO-7 28 Feb 07:25:53 07:27:33 11° 326° (NNW) 07:29:14 .
FO-29 28 Feb 07:26:21 07:27:07 10° 42° (NE) 07:27:53 435.910
DOVE 4 28 Feb 07:31:31 07:35:26 26° 294° (WNW) 07:39:30 437.250
KAITUO 1B 28 Feb 07:36:35 07:39:23 20° 294° (WNW) 07:42:10 145.475/437.950
CUBEBUG 2 28 Feb 07:39:40 07:43:50 29° 94° (E) 07:47:55 437.445
SEEDS 28 Feb 07:40:27 07:44:22 38° 97° (E) 07:48:16 437.485
XW-2F 28 Feb 07:47:15 07:49:18 14° 297° (WNW) 07:51:21 145.980 - 146.000
BEESAT 3 28 Feb 07:53:30 07:54:52 11° 329° (NNW) 07:56:14 437.485
XW-2D 28 Feb 07:54:28 07:55:49 12° 298° (WNW) 07:57:11 145.860 - 145.880
TIGRISAT 28 Feb 07:57:43 07:59:39 13° 58° (ENE) 08:01:35 435.000
UNISAT 6 28 Feb 07:58:02 08:00:17 14° 59° (ENE) 08:02:33 437.425
XW-2B 28 Feb 08:00:04 08:00:55 11° 299° (WNW) 08:01:45 145.730 - 145.750
ISS 28 Feb 08:00:15 08:03:33 68° 334° (NNW) 08:06:50 437.550
UWE-3 28 Feb 08:10:19 08:14:39 37° 96° (E) 08:18:54 435.000/436.395/437.385
Tancredo 1 28 Feb 08:18:08 08:21:19 49° 338° (NNW) 08:24:30 437.200
PRISM 28 Feb 08:23:45 08:27:39 48° 72° (ENE) 08:31:35 437.425
ZACube-1 28 Feb 08:24:21 08:28:23 31° 95° (E) 08:32:20 437.345
CUTE 1.7 + AOD 2 28 Feb 08:24:47 08:28:49 45° 289° (WNW) 08:32:50 437.475
XW-2A 28 Feb 08:30:39 08:33:16 20° 293° (WNW) 08:35:53 145.665 - 145.685
HO-68 28 Feb 08:34:00 08:41:06 68° 291° (WNW) 08:48:10 435.675
O/OREOS (USA 219) 28 Feb 08:37:35 08:41:44 34° 254° (WSW) 08:45:53 437.305
BEESAT 2 28 Feb 08:39:37 08:40:18 10° 331° (NNW) 08:41:00 435.950
CUTE-I 28 Feb 08:43:41 08:45:26 12° 307° (NW) 08:47:10 437.470
AAUSAT CUBESAT 2 28 Feb 08:55:39 08:59:43 62° 286° (WNW) 09:03:45 437.432
FO-29 28 Feb 09:03:13 09:10:02 41° 63° (ENE) 09:17:13 435.910
AO-73 28 Feb 09:10:36 09:15:10 84° 101° (E) 09:19:37 145.935
Oscar 11 28 Feb 09:13:17 09:17:38 78° 101° (E) 09:21:56 .
CUBEBUG 2 28 Feb 09:16:09 09:20:26 34° 292° (WNW) 09:24:39 437.445
YUBILEINY 28 Feb 09:16:20 09:24:10 38° 85° (E) 09:31:58 435.215
SEEDS 28 Feb 09:16:43 09:19:49 21° 295° (WNW) 09:22:55 437.485
TIGRISAT 28 Feb 09:31:03 09:35:36 87° 258° (WSW) 09:40:17 435.000
UNISAT 6 28 Feb 09:31:47 09:36:19 80° 257° (WSW) 09:41:00 437.425
ISS 28 Feb 09:37:31 09:40:24 27° 353° (N) 09:43:17 437.550
DUCHIFAT 1 28 Feb 09:40:18 09:41:28 11° 59° (ENE) 09:42:39 145.980
AIST 2D 28 Feb 09:45:54 09:48:23 18° 66° (ENE) 09:50:54 435.315
UWE-3 28 Feb 09:47:03 09:50:55 26° 294° (WNW) 09:54:44 435.000/436.395/437.385
EO-79 28 Feb 09:53:04 09:55:53 18° 63° (ENE) 09:58:44 145.935-145.965
Tancredo 1 28 Feb 09:55:18 09:58:04 25° 357° (N) 10:00:50 437.200
DELFI C3 28 Feb 09:59:40 10:03:36 83° 102° (ESE) 10:07:32 145.870
ZACube-1 28 Feb 10:00:38 10:04:36 29° 293° (WNW) 10:08:28 437.345
PRISM 28 Feb 10:00:46 10:03:12 15° 268° (W) 10:05:40 437.425
NANOSAT C BR1 28 Feb 10:07:25 10:10:42 22° 65° (ENE) 10:14:00 145.865
POLYITAN 1 28 Feb 10:10:46 10:14:18 26° 66° (ENE) 10:17:53 437.675
QB50P2 28 Feb 10:13:43 10:17:24 29° 67° (ENE) 10:21:07 145.880/145.840
HO-68 28 Feb 10:23:36 10:27:34 16° 312° (NW) 10:31:31 435.675
BUGSAT 1 28 Feb 10:24:02 10:25:15 11° 59° (ENE) 10:26:27 437.445
AO-85 28 Feb 10:24:41 10:26:29 13° 33° (NNE) 10:28:17 145.980
FO-29 28 Feb 10:47:48 10:54:50 49° 263° (W) 11:02:24 435.910
AO-73 28 Feb 10:48:50 10:50:42 12° 301° (WNW) 10:52:34 145.935
Oscar 11 28 Feb 10:51:23 10:53:09 12° 300° (WNW) 10:54:54 .
YUBILEINY 28 Feb 11:12:07 11:20:40 53° 286° (WNW) 11:29:14 435.215
DUCHIFAT 1 28 Feb 11:12:16 11:16:29 85° 257° (WSW) 11:20:45 145.980
ISS 28 Feb 11:14:29 11:17:29 31° 13° (NNE) 11:20:29 437.550
Oscar 19 28 Feb 11:14:49 11:17:50 16° 58° (ENE) 11:20:50 437.125/150
LO-87 28 Feb 11:17:24 11:21:01 87° 102° (ESE) 11:24:38 145.935 - 145.965
AIST 2D 28 Feb 11:18:12 11:21:24 31° 263° (W) 11:24:39 435.315
EO-79 28 Feb 11:27:10 11:31:17 49° 260° (W) 11:35:27 145.935-145.965
Tancredo 1 28 Feb 11:31:52 11:34:55 36° 17° (NNE) 11:37:56 437.200
50 SAT 28 Feb 11:34:14 11:34:57 10° 90° (E) 11:35:40 437.505
SPROUT 28 Feb 11:36:56 11:39:55 18° 92° (E) 11:42:53 437.525
ESTCUBE 1 28 Feb 11:42:02 11:46:31 72° 103° (ESE) 11:50:59 437.505/2401.250
NANOSAT C BR1 28 Feb 11:42:17 11:46:12 37° 263° (W) 11:50:10 145.865
POLYITAN 1 28 Feb 11:46:11 11:49:59 31° 264° (W) 11:53:50 437.675
QB50P2 28 Feb 11:49:32 11:53:10 27° 265° (W) 11:56:50 145.880/145.840
VELOX 1 28 Feb 11:53:10 11:57:08 31° 97° (E) 12:01:04 145.980
BUGSAT 1 28 Feb 11:55:53 11:59:57 81° 255° (WSW) 12:04:08 437.445
AO-85 28 Feb 12:03:39 12:07:34 76° 54° (NE) 12:11:32 145.980
Gurwin Techsat 1B 28 Feb 12:24:19 12:29:07 36° 66° (ENE) 12:33:56 435.225
AO-7 28 Feb 12:47:49 12:53:59 24° 49° (NE) 13:00:08 .
BEESAT 3 28 Feb 12:50:28 12:53:35 21° 40° (NE) 12:56:41 437.485
ISS 28 Feb 12:50:53 12:54:10 73° 214° (SSW) 12:57:27 437.550
Oscar 19 28 Feb 12:51:21 12:56:30 80° 257° (WSW) 13:01:40 437.125/150
50 SAT 28 Feb 13:05:00 13:08:23 50° 286° (WNW) 13:11:44 437.505
Tancredo 1 28 Feb 13:08:08 13:11:16 49° 216° (SW) 13:14:23 437.200
DX 1 28 Feb 13:09:29 13:13:52 87° 105° (ESE) 13:18:14 434.975-435.025
SPROUT 28 Feb 13:11:56 13:16:04 45° 289° (WNW) 13:20:10 437.525
UKube-1 28 Feb 13:14:44 13:19:04 72° 103° (ESE) 13:23:23 .
YUBILEINY 28 Feb 13:17:06 13:19:59 12° 311° (NW) 13:22:53 435.215
ESTCUBE 1 28 Feb 13:20:26 13:22:45 14° 300° (WNW) 13:25:03 437.505/2401.250
VELOX 1 28 Feb 13:29:45 13:33:30 28° 294° (WNW) 13:37:15 145.980
ITAMSAT 1 28 Feb 13:33:17 13:37:44 30° 64° (ENE) 13:42:14 435.822/435.867
BEESAT 2 28 Feb 13:36:07 13:39:30 25° 42° (NE) 13:42:52 435.950
AO-85 28 Feb 13:46:36 13:47:22 10° 251° (WSW) 13:48:07 145.980
Gurwin Techsat 1B 28 Feb 14:04:17 14:09:03 33° 264° (W) 14:13:52 435.225
BEESAT 3 28 Feb 14:27:33 14:31:29 52° 239° (WSW) 14:35:22 437.485
ISS 28 Feb 14:29:13 14:30:06 11° 229° (SW) 14:30:59 437.550
MOZHAYETS 4 28 Feb 14:34:06 14:36:32 14° 89° (E) 14:38:59
Oscar 19 28 Feb 14:36:18 14:36:37 10° 274° (W) 14:36:56 437.125/150
AO-7 28 Feb 14:37:17 14:45:40 86° 70° (ENE) 14:54:04 .
ITUPSAT 1 28 Feb 14:38:12 14:42:42 39° 98° (E) 14:47:10 437.325
BEESAT 28 Feb 14:42:23 14:46:58 43° 99° (E) 14:51:30 436.000
DX 1 28 Feb 14:47:59 14:49:23 11° 302° (WNW) 14:50:47 434.975-435.025
UKube-1 28 Feb 14:52:27 14:54:32 13° 300° (WNW) 14:56:36 .
RS-15 28 Feb 15:09:45 15:18:07 23° 98° (E) 15:26:38 29.354- 29.394
ITAMSAT 1 28 Feb 15:12:10 15:17:03 40° 262° (W) 15:21:59 435.822/435.867
BEESAT 2 28 Feb 15:13:35 15:17:26 42° 241° (WSW) 15:21:15 435.950
PCSat 28 Feb 15:25:32 15:30:49 56° 116° (ESE) 15:36:08 145.827
CUBESAT XI-V 28 Feb 15:43:22 15:45:07 12° 88° (E) 15:46:51 437.345
LilacSat-2 28 Feb 16:05:11 16:05:55 10° 61° (ENE) 16:06:38 437.200
MOZHAYETS 4 28 Feb 16:09:35 16:14:10 65° 286° (WNW) 16:18:42
KKS-1 28 Feb 16:14:52 16:19:02 37° 98° (E) 16:23:11 437.445
ITUPSAT 1 28 Feb 16:16:23 16:20:22 26° 295° (WNW) 16:24:19 437.325
BEESAT 28 Feb 16:20:41 16:24:29 24° 297° (WNW) 16:28:16 436.000
NO-84 28 Feb 16:26:02 16:29:13 84° 139° (SE) 16:32:43 435.350 FM
AO-7 28 Feb 16:33:18 16:39:23 22° 269° (W) 16:45:32 .
STARS 28 Feb 16:39:05 16:43:01 30° 96° (E) 16:46:56 437.465
KAITUO 1B 28 Feb 16:44:27 16:47:23 21° 67° (ENE) 16:50:20 145.475/437.950
CUTE-I 28 Feb 16:45:38 16:50:25 35° 65° (ENE) 16:55:14 437.470
XW-2F 28 Feb 16:54:37 16:58:04 32° 70° (ENE) 17:01:32 145.980 - 146.000
XW-2D 28 Feb 17:01:18 17:04:55 40° 72° (ENE) 17:08:34 145.860 - 145.880
DOVE 4 28 Feb 17:01:19 17:05:16 45° 71° (ENE) 17:09:20 437.250
XW-2B 28 Feb 17:06:22 17:10:03 45° 72° (ENE) 17:13:46 145.730 - 145.750
PCSat 28 Feb 17:09:54 17:14:33 28° 316° (NW) 17:19:13 145.827
NUDT-PHONESAT 28 Feb 17:14:09 17:17:46 45° 72° (ENE) 17:21:25 437.300
XW-2C 28 Feb 17:15:03 17:18:50 58° 74° (ENE) 17:22:39 145.795 - 145.815
RS-15 28 Feb 17:16:38 17:28:36 81° 121° (ESE) 17:41:01 29.354- 29.394
CUBESAT XI-V 28 Feb 17:18:26 17:23:03 76° 285° (WNW) 17:27:38 437.345
HO-68 28 Feb 17:18:34 17:24:10 25° 55° (NE) 17:29:45 435.675
M-CUBED/EXP-1 PRIME 28 Feb 17:29:35 17:33:12 37° 104° (ESE) 17:37:05 437.505
XW-2A 28 Feb 17:32:12 17:33:57 14° 64° (ENE) 17:35:44 145.665 - 145.685
LilacSat-2 28 Feb 17:35:43 17:39:36 77° 258° (WSW) 17:43:30 437.200
CUTE 1.7 + AOD 2 28 Feb 17:44:46 17:47:33 17° 63° (ENE) 17:50:20 437.475
KKS-1 28 Feb 17:51:47 17:55:26 25° 295° (WNW) 17:59:03 437.445
NO-84 28 Feb 18:04:27 18:07:16 24° 343° (NNW) 18:10:19 435.350 FM
